Location: M?digepalle
(16.1753°N, 80.3496°E)
Time: 09:12:51
(UTC+00:00)

Okean 1-7 Rocket - Pass Details

Date: 29 October 2020
Orbit: 615 x 650 km, 82.5° (Epoch: 27 November)

Event Time Altitude Azimuth Distance (km) Brightness Sun altitude
Rises 23:28:32 0° 192° (SSW) 2,955 7.0 -16.5°
Reaches altitude 10° 23:30:49 10° 197° (SSW) 2,045 6.2 -15.9°
Maximum altitude 23:35:17 56° 275° (W) 768 3.7 -14.9°
Drops below altitude 10° 23:39:44 10° 354° (N) 2,038 6.0 -13.8°
Sets 23:42:01 0° 358° (N) 2,944 6.9 -13.3°
